Home   Weather   Saint-Jérôme   Past weeks

Flag for Canada Past Weather in Saint-Jérôme, Quebec, Canada — Yesterday and Last 2 Weeks

Now
77 °F

Broken clouds.


Feels Like: 79 °F
Forecast: 61 / 77 °F
Wind: 10 mph from Southwest

Location: Montreal / Mirabel

Current Time: Aug 20, 2017 at 3:25:30 pm

Latest Report: Aug 20, 2017 at 2:00 pm


Visibility: 25 mi

Pressure: 29.98 "Hg

Humidity: 65%

Dew Point: 64 °F

Location of Saint-JérômeLocation

Past Weather in Saint-Jérôme — Graph

°F

Saint-Jérôme Temperature Yesterday

Maximum temperature yesterday: 79 °F (at 2:00 pm)
Minimum temperature yesterday: 63 °F (at 12:00 am)
Average temperature yesterday: 68 °F

High & Low Weather Summary for the Past Weeks

 TemperatureHumidityPressure
High81 °F (Aug 11, 2:00 pm)100% (Aug 7, 3:00 am)30.23 "Hg (Aug 7, 3:00 am)
Low52 °F (Aug 7, 3:00 am)38% (Aug 8, 6:00 pm)29.70 "Hg (Aug 19, 4:16 am)
Average65 °F80%29.94 "Hg
* Reported Aug 5 2:00 pm — Aug 20 2:00 pm, Saint-Jérôme. Weather by CustomWeather, © 2017

Note: Actual official high and low records may vary slightly from our data, if they occured in-between our weather recording intervals... More about our weather records

Advertising

Saint-Jérôme Weather History for the Previous 24 Hours

Scroll right to see more
 ConditionsComfort  
Time TempWeatherWind HumidityBarometerVisibility
2:00 pm
Sun, Aug 20
77 °FBroken clouds.10 mph65%29.98 "Hg25 mi
1:00 pm75 °FScattered clouds.10 mph65%29.98 "Hg45 mi
12:00 pm73 °FPartly sunny.9 mph65%29.98 "Hg30 mi
11:00 am72 °FPartly sunny.8 mph69%29.98 "Hg45 mi
10:00 am68 °FPartly sunny.6 mph78%29.98 "Hg40 mi
9:00 am66 °FScattered clouds.7 mph83%29.98 "Hg45 mi
8:00 am63 °FScattered clouds.7 mph88%29.96 "Hg45 mi
7:00 am61 °FPassing clouds.2 mph94%29.93 "Hg45 mi
6:00 am61 °FPassing clouds.3 mph94%29.90 "Hg45 mi
5:00 am64 °FPassing clouds.6 mph88%29.86 "Hg25 mi
4:00 am64 °FPassing clouds.5 mph88%29.84 "Hg25 mi
3:00 am64 °FPassing clouds.6 mph94%29.82 "Hg25 mi
2:00 am64 °FPassing clouds.5 mph94%29.81 "Hg25 mi
1:00 am64 °FPassing clouds.2 mph94%29.80 "Hg25 mi
12:00 am66 °FPassing clouds.7 mph88%29.79 "Hg25 mi
11:00 pm
Sat, Aug 19
66 °FPartly cloudy.5 mph88%29.78 "Hg25 mi
10:00 pm66 °FPartly cloudy.5 mph88%29.78 "Hg25 mi
9:00 pm68 °FPassing clouds.6 mph83%29.77 "Hg25 mi
8:00 pm70 °FPartly cloudy.6 mph73%29.76 "Hg45 mi
7:00 pm72 °FPartly sunny.7 mph73%29.74 "Hg45 mi
6:00 pm73 °FBroken clouds.9 mph65%29.74 "Hg45 mi
5:00 pm75 °FBroken clouds.8 mph69%29.74 "Hg45 mi
4:00 pm73 °FBroken clouds.8 mph74%29.74 "Hg45 mi
3:00 pm75 °FScattered showers. Broken clouds.12 mph69%29.74 "Hg45 mi
Weather by CustomWeather, © 2017

See weather overviewHow to use our weather pages